Location: Bégole
(43.1574°N, 0.3291°E)
Time: 12:46:09
(UTC+00:00)

Cosmos 614 Rocket - Pass Details

Date: 28 January 2023
Orbit: 733 x 762 km, 74.1° (Epoch: 20 March)

Event Time Altitude Azimuth Distance (km) Brightness Sun altitude
Rises 17:33:37 0° 201° (SSW) 3,210 7.9 -5.6°
Reaches altitude 10° 17:35:59 10° 202° (SSW) 2,288 7.1 -6.1°
Maximum altitude 17:41:11 82° 290° (WNW) 773 4.1 -6.9°
Drops below altitude 10° 17:46:24 10° 19° (NNE) 2,294 6.1 -7.9°
Sets 17:48:47 0° 20° (NNE) 3,219 6.9 -8.3°
